Regional Weather Roundup
Issued by NWS Green Bay, WI

Home | Current Version | Previous Version | Text Only | Print | Product List | Glossary On
Versions: 1 2 3 4 5 6 7 8 9 10 11 12 13 14 15 16 17 18 19 20 21 22 23 24 25 26 27 28 29 30 31 32 33 34 35 36 37 38 39 40 41 42 43 44 45 46 47 48 49 50
000
ASUS43 KGRB 200111
RWRGRB

NORTH-CENTRAL AND NORTHEAST WISCONSIN REGIONAL WEATHER ROUNDUP
NATIONAL WEATHER SERVICE GREEN BAY WI
700 PM CST THU JAN 19 2017

WIZ005-009-010>012-018-019-200200-
NORTH CENTRAL WISCONSIN

CITY           SKY/WX    TMP DP  RH WIND       PRES   REMARKS
IRONWOOD       CLEAR     43  32  65 S5        29.78R
MANITOWISH WTR CLEAR     34  33  94 S3        29.79S
ARBOR VITAE    PTCLDY    37  33  87 S3        29.79F
EAGLE RIVER    CLEAR     34  31  88 S3        29.80S
LAND O LAKES   CLEAR     36  31  83 CALM      29.81S
RHINELANDER    MOCLDY    35  32  88 S3        29.81F
PHILLIPS       CLEAR     34  31  87 S7        29.79F
ANTIGO         FOG       29  29 100 CALM      29.83F VSB 1/4
TOMAHAWK       CLOUDY    32  31  96 CALM      29.82S FOG
MERRILL        CLOUDY    32  32 100 SE3         N/A  FOG
$$

WIZ013-073-200200-
NORTHEAST WISCONSIN

CITY           SKY/WX    TMP DP  RH WIND       PRES   REMARKS
IRON MOUNTAIN  FOG       32  30  92 S7        29.84R VSB 1/4
MARINETTE      NOT AVBL
OCONTO         CLOUDY    32  31  96 CALM      29.87F
$$

WIZ017-030-035>037-045-200200-
CENTRAL WISCONSIN

CITY           SKY/WX    TMP DP  RH WIND       PRES   REMARKS
MEDFORD        FOG       31  30  98 SE5       29.79F VSB 1
WAUSAU         CLOUDY    31  31 100 E7        29.81F FOG
MOSINEE        FOG       32  32 100 NE9       29.82F VSB 1/4
MARSHFIELD     PTCLDY    31  30  96 NE6       29.79F FOG
WISC RAPIDS    CLOUDY    34  32  92 E3        29.82F
STEVENS POINT  PTCLDY    31  31 100 E3        29.83F FOG
WAUPACA        CLOUDY    33  31  93 CALM      29.84F FOG
SHAWANO        FOG       33  32  96 CALM      29.87F VSB 1/2
CLINTONVILLE   FOG       32  32 100 CALM      29.86S VSB 1/2
WAUTOMA        CLOUDY    32  31  96 CALM      29.84F FOG
$$

WIZ038-039-048-051-200200-
FOX VALLEY

CITY           SKY/WX    TMP DP  RH WIND       PRES   REMARKS
NWS GREEN BAY  FOG       33  33 100 CALM      29.87S VSB 1/4
APPLETON       FOG       30  30 100 NE5       29.83F VSB 1/4
OSHKOSH        FOG       33  31  92 CALM      29.85S VSB 1/4
FOND DU LAC    CLOUDY    34  31  88 NE5       29.84F FOG
$$

WIZ022-050-052-200200-
EAST CENTRAL WISCONSIN

CITY           SKY/WX    TMP DP  RH WIND       PRES   REMARKS
EPHRAIM        FOG       32  32 100 CALM      29.86F VSB 1/2
WASHINGTON ISL FOG       32  32  99 SW5       29.88F VSB 1/2
STURGEON BAY   FOG       32  31  96 S3        29.88F VSB 1/2
MANITOWOC      FOG       33  32  96 S5        29.88S VSB 1/4
SHEBOYGAN      FOG       32  31  96 CALM      29.86F VSB 1/4
$$

LMZ563-521-522-541>543-200200-
LAKESHORE

STATION/POSITION TIME  TEMP    WIND        PRES    VSBY  WAVE
                       AIR SEA DIR/SP/G                  HT/PER
                 (UTC) (F)     (DEG/KT/KT) (MB)    (MI)  (FT/S)
SHEBOYGAN LKSHOR 0000   34     190/  5/  5 1012.3R
KEWAUNEE LKSHORE 0030   33     210/  2/  4 1011.3F
NORTHPORT PIER   0040   33      CALM  /  5 1012.2F
SISTER BAY LKSHO 0050   32     210/  7/  7   N/A
$$



USA.gov is the U.S. government's official web portal to all federal, state and local government web resources and services.